Regional Weather Roundup
Issued by NWS

Home | Current Version | Previous Version | Graphics & Text | Print | Product List | Glossary On
Versions: 1 2 3 4 5 6 7 8 9 10 11 12 13 14 15 16 17 18 19 20 21 22 23 24 25 26 27 28 29 30 31 32 33 34 35 36 37 38 39 40 41 42 43 44 45 46 47 48 49 50
000
ASUS45 KBOU 060110
RWRCO

WEATHER ROUNDUP FOR COLORADO
NATIONAL WEATHER SERVICE DENVER/BOULDER CO
700 PM MDT SUN JUL 05 2015

NOTE: "FAIR" INDICATES FEW OR NO CLOUDS BELOW 12000 FEET WITH NO
SIGNIFICANT WEATHER AND/OR OBSTRUCTIONS TO VISIBILITY.

COZ001>005-013-030-031-060200-
...NORTHWEST COLORADO...

CITY           SKY/WX    TMP DP  RH WIND       PRES   REMARKS
CRAIG          LGT RAIN  62  58  86 SE5       30.17F
HAYDEN         CLOUDY    59  54  82 N14       30.19R
MEEKER         TSTM      64  59  83 SE7       30.15S
MOUNT WERNER   NOT AVBL
STEAMBOAT SPGS CLOUDY    62  55  79 SW5       30.19R
WALDEN         CLOUDY    59  54  82 NW9       30.25R
$$

COZ006>008-011-060200-
...WEST CENTRAL VALLEYS...

CITY           SKY/WX    TMP DP  RH WIND       PRES   REMARKS
GRAND JUNCTION CLOUDY    69  63  81 S10       30.04S
MONTROSE       PTSUNNY   73  57  57 S9        30.13F
EAGLE          NOT AVBL
RIFLE          LGT RAIN  65  59  81 S7        30.11R
DELTA          PTSUNNY   76  57  50 SW5       30.11R
NUCLA          PTSUNNY   73  55  53 E9        30.16S
$$

COZ017>023-064>068-060200-
...SOUTHWEST COLORADO...

CITY           SKY/WX    TMP DP  RH WIND       PRES   REMARKS
DURANGO        PTSUNNY   75  48  38 VRB3      30.13F
CORTEZ         SUNNY     78  50  37 NW5       30.10F
PAGOSA SPRINGS PTSUNNY   73  49  42 W7        30.21R THUNDER
TELLURIDE      PTSUNNY   60  50  70 CALM      30.36F
WOLF CREEK PAS NOT AVBL
$$

COZ009-010-012-014-032>034-037-058>063-060200-
...CENTRAL COLORADO...

CITY           SKY/WX    TMP DP  RH WIND       PRES   REMARKS
ASPEN          CLOUDY    65  55  70 CALM      30.23F
BUENA VISTA    CLOUDY    65  54  65 CALM      30.21F
COPPER MTN     HAZE      54  50  87 W10       30.52F VSB<1/4
BERTHOUD PASS  CLOUDY    43  34  70 W9G23     30.56S HAZE
COTTONWOOD PAS NOT AVBL
GUNNISON       PTSUNNY   64  52  63 SW9       30.26F
KREMMLING      RAIN      61  55  82 CALM      30.22R
LEADVILLE      CLOUDY    58  48  69 NW10G17   30.36S
SALIDA         CLOUDY    67  53  59 W10       30.25F
SUNLIGHT       RAIN      54  54 100 CALM      30.46F VSB<1/4
WILKERSON PASS RAIN      48  45  87 SW10G16   30.49S
$$

COZ069>075-060200-
...SAN LUIS VALLEY/SANGRE DE CRISTO MOUNTAINS...

CITY           SKY/WX    TMP DP  RH WIND       PRES   REMARKS
ALAMOSA        PTSUNNY   70  53  54 N14G23    30.19R
LA VETA PASS   CLOUDY    61  43  51 MISG      30.37R
SAGUACHE       CLOUDY    59  55  88 NW9       30.26F
$$

COZ035-036-038>040-060200-
...NORTHERN COLORADO FRONT RANGE...

CITY           SKY/WX    TMP DP  RH WIND       PRES   REMARKS
DENVER INTL AP CLOUDY    73  57  57 S3        30.03R
DMNS CITY PARK   N/A     73  56  56 W3        30.00F
AURORA         PTSUNNY   69  61  74 NE2       30.04F
FRONT RANGE AP PTSUNNY   73  59  60 NW5       30.05R
ERIE MUNI ARPT CLOUDY    72  59  64 SW5       30.00S
BOULDER MUN AP CLOUDY    72  59  64 W7        30.00F
CENTENNIAL     LGT RAIN  67  60  78 E5        30.04F
BROOMFIELD     PTSUNNY   72  61  68 VRB3      30.04S
FORT COLLINS   CLOUDY    70  61  73 N17       30.00F
LONGMONT       CLOUDY    74  62  65 NW8       30.00F
$$

COZ041-046-047-076>085-087-088-060200-
...PIKES PEAK/PALMER DIVIDE AND SOUTHERN FOOTHILLS...

CITY           SKY/WX    TMP DP  RH WIND       PRES   REMARKS
COLO. SPRINGS  CLOUDY    76  53  44 N29G35    30.03R
A. F. ACADEMY  CLOUDY    64  59  82 N17G25    30.09R
ELLICOTT       CLOUDY     1   1 100 N25G33    30.03R WCI -23
FALCON         CLOUDY    68  53  58 N21G36    30.11R
FORT CARSON    CLOUDY    78  54  43 N24G31    30.00R
LIMON          CLOUDY    74  55  51 NW31G45   29.99R
MONUMENT HILL  LGT RAIN  61  55  82 N10       30.15R
TRINIDAD       SUNNY     85  53  33 S12       29.98R
$$

COZ042>045-048>051-090-091-060200-
...NORTHEAST COLORADO...

CITY           SKY/WX    TMP DP  RH WIND       PRES   REMARKS
GREELEY ARPT   CLOUDY    70  59  68 NW16      29.97F
AKRON          PTSUNNY   76  56  49 N22       29.92R
BURLINGTON     MOSUNNY   94  52  24 S16       29.83R
WRAY           CLOUDY    94  49  21 SW7       29.77S
STERLING       PTSUNNY   77  57  50 W15G28      N/A
HOLYOKE        CLOUDY    79  63  57 N7        29.81S
FORT MORGAN    PTSUNNY   73  57  58 NW20G35   29.95R
$$

COZ086-089-092>099-060200-
...SOUTHEAST COLORADO...

CITY           SKY/WX    TMP DP  RH WIND       PRES   REMARKS
PUEBLO         CLOUDY    89  50  26 W17       29.88R
LA JUNTA       CLOUDY    93  50  23 S8        29.83R
LAMAR          CLOUDY    94  55  26 S21G28    29.78R
SPRINGFIELD      N/A     85  58  39 S18G29    29.90R
$$



USA.gov is the U.S. government's official web portal to all federal, state and local government web resources and services.